Temp
67 57 54 60 63 62 60 58 56 62 67 65 64 66 70 76 77 80 81 83 84 86 92 95 96 95 90 95 91 85 80 80 82 82 88 90 89 91 92 93 89 88 89 87
60 52 62 65 63 60 60 56 55 60 66 64 62 62 69 74 75 78 80 83 85 87 89 92 94 95 92 88 87 82 79 79 80 86 89 91 91 92 93 91 87 88 87 85
54 59 64 59 55 55 57 54 55 55 61 64 60 57 62 71 76 79 81 83 86 87 88 90 93 93 94 89 83 78 80 81 80 85 87 88 91 90 89 86 86 86 86 86
57 64 60 58 56 57 49 60 58 55 54 47 60 46 59 63 69 74 78 80 82 86 89 91 92 91 92 88 84 80 80 80 84 86 86 84 85 82 89 85 83 83 83 82
52 55 54 53 57 59 53 58 57 54 52 50 54 47 56 66 64 69 74 77 81 85 88 90 93 93 92 83 80 79 79 81 83 84 86 86 85 83 81 82 77 78 78 76
56 64 61 59 62 60 61 55 55 56 53 38 49 48 52 59 65 70 75 78 80 85 88 91 94 94 90 84 78 77 76 79 80 83 85 83 81 79 80 78 77 80 75 72
53 58 62 63 57 59 58 51 37 34 34 37 52 48 53 64 73 75 77 80 82 85 88 90 92 91 89 82 76 77 77 77 81 83 82 80 77 79 78 80 82 79 73 70
41 42 56 61 57 51 52 51 40 31 33 37 54 45 53 68 75 80 81 83 84 85 89 90 91 91 84 82 76 80 81 80 81 80 80 79 80 84 83 84 82 78 73 72
41 41 57 60 62 59 51 44 56 44 48 41 49 54 64 70 71 76 79 82 83 86 89 90 91 93 86 77 81 78 79 78 76 80 81 81 84 83 79 75 75 76 74 74
39 35 52 54 59 60 56 57 39 45 33 33 46 48 52 60 66 71 76 78 82 87 89 90 91 87 86 77 82 79 78 79 79 82 82 82 83 79 74 75 75 73 72 71
41 37 44 49 46 47 45 41 46 48 46 38 34 42 57 62 69 71 75 77 81 86 89 90 90 89 76 84 78 76 79 80 80 82 80 80 76 75 76 74 73 72 70 69
46 38 36 45 57 59 55 49 48 37 40 49 47 41 61 62 73 75 76 79 83 86 89 91 90 80 78 74 77 76 76 76 78 80 74 73 74 75 73 71 70 70 69 70
40 35 33 42 50 55 49 52 52 49 49 40 36 39 58 65 71 75 76 81 83 84 88 87 79 73 68 68 71 71 70 71 71 72 71 71 72 72 71 70 70 70 70 71
42 34 34 33 40 40 38 47 50 47 38 46 48 37 49 60 57 66 77 80 83 84 82 85 73 67 66 67 67 67 68 69 70 69 68 68 69 69 69 69 69 69 70 69
38 33 38 40 43 44 43 44 45 46 49 42 49 38 48 57 57 62 62 73 81 84 80 73 64 63 64 65 66 65 67 70 71 69 68 67 67 68 68 68 68 69 70 70
38 34 42 42 49 48 43 48 49 49 49 50 51 46 51 60 61 62 64 68 79 70 64 62 61 61 62 64 64 64 66 69 71 68 67 67 67 65 65 67 68 68 68 69
33 35 35 38 48 40 35 46 49 50 53 53 45 49 55 57 56 57 53 66 68 59 59 58 58 60 61 64 64 63 65 69 69 69 68 67 67 66 68 69 68 66 65 66
33 32 35 35 42 30 42 53 58 55 55 57 48 50 54 52 50 53 59 63 57 57 56 57 57 58 60 63 64 65 68 71 71 69 69 69 70 69 68 67 65 64 65 63
38 34 34 33 32 36 45 45 42 43 47 54 49 53 50 48 49 47 54 57 55 55 55 55 57 58 60 63 66 71 72 72 72 71 70 71 70 68 67 65 64 65 64 63
49 41 34 35 37 32 35 45 54 55 39 52 50 51 48 47 42 43 49 51 51 52 53 54 56 57 59 63 69 71 71 71 70 71 71 71 70 67 65 65 64 64 65 64
38 42 36 38 37 38 38 41 58 35 38 46 50 51 48 44 46 47 48 49 51 51 52 54 56 56 58 63 69 69 69 68 70 70 69 67 67 65 64 64 65 64 63 62
32 31 34 38 35 32 41 44 37 40 45 52 51 48 45 46 46 47 47 48 49 50 52 54 55 57 64 68 68 66 65 67 68 66 65 64 64 66 65 63 63 63 63 61
33 33 31 34 35 39 40 39 44 44 49 51 50 47 46 45 45 46 45 47 48 50 52 55 57 59 62 65 65 62 63 65 64 62 62 62 64 64 64 63 63 64 64 65
38 37 34 34 38 38 39 42 44 49 49 51 51 47 46 43 44 44 45 45 47 49 51 55 58 60 61 63 63 63 64 64 63 61 61 62 62 62 64 65 63 59 61 64
35 35 34 35 38 38 40 41 43 46 48 47 48 48 45 45 43 44 44 46 48 50 53 58 60 60 59 61 61 62 62 62 60 59 59 58 56 51 49 48 53 51 46 50
34 33 33 33 36 36 38 42 44 44 43 45 45 45 47 46 44 45 45 47 49 51 55 58 57 58 58 60 60 61 61 61 59 58 59 58 57 56 54 52 48 38 40 39
MSLP
1005.35 1005.89 1004.81 1003.57 1003.30 1002.93 1002.77 1001.83 1000.97 1000.13 1000.13 1000.10 998.94 997.97 998.07 997.79 997.33 996.20 996.33 996.07 996.16 996.34 996.41 996.51 997.08 998.03 999.31 999.55 1000.65 1002.21 1003.57 1004.68 1005.46 1005.98 1006.06 1006.20 1006.77 1007.27 1007.70 1008.18 1008.97 1009.66 1009.88 1010.31
1005.18 1004.47 1004.31 1003.87 1003.61 1003.52 1002.64 1002.03 1001.38 1001.14 1000.77 1000.41 999.44 998.68 997.85 996.87 996.54 996.38 995.50 995.32 995.32 995.46 995.64 995.97 996.47 997.20 998.26 999.23 1000.30 1002.24 1003.35 1004.48 1005.17 1005.43 1005.50 1005.75 1006.13 1006.98 1007.54 1008.34 1009.27 1009.47 1009.97 1010.44
1004.60 1004.12 1003.83 1004.07 1004.34 1003.71 1002.87 1002.42 1001.73 1001.43 1000.89 1000.31 999.54 998.52 997.87 996.82 996.05 995.70 995.31 995.12 994.98 994.60 994.63 995.06 995.45 996.38 997.42 998.81 1000.54 1002.06 1003.00 1004.25 1004.98 1004.94 1005.33 1005.63 1006.06 1006.88 1007.70 1008.71 1009.20 1009.58 1009.86 1010.13
1004.46 1003.82 1003.32 1003.36 1003.02 1003.21 1002.92 1002.73 1002.16 1001.88 1001.18 1000.19 999.57 997.71 996.84 997.02 995.24 995.09 994.80 994.95 994.88 994.48 994.28 994.35 994.84 995.99 996.88 998.55 1000.60 1001.95 1002.78 1003.98 1004.75 1005.04 1005.31 1005.37 1005.95 1006.87 1007.17 1008.21 1009.37 1009.66 1010.19 1010.70
1004.28 1003.91 1003.62 1003.03 1002.60 1003.07 1002.67 1002.73 1002.32 1002.40 1001.19 1000.57 999.16 998.11 996.36 995.43 994.34 994.23 994.45 994.54 994.53 994.23 993.94 993.94 994.31 995.53 996.71 999.34 1000.57 1001.53 1002.70 1003.17 1004.36 1004.88 1005.03 1005.56 1005.91 1007.33 1008.23 1008.93 1009.78 1010.33 1011.16 1011.73
1004.05 1003.54 1002.89 1002.39 1002.36 1002.76 1002.75 1002.54 1002.24 1001.71 1000.93 1000.05 999.02 997.60 995.41 994.09 993.12 993.02 993.18 993.25 993.69 993.54 993.32 993.50 993.66 994.73 996.43 999.03 1000.32 1001.62 1002.92 1003.82 1004.30 1004.37 1005.06 1005.54 1006.45 1007.49 1008.27 1008.93 1009.39 1009.94 1011.46 1012.48
1003.29 1002.18 1001.82 1001.99 1001.70 1002.09 1002.23 1002.16 1001.96 1001.48 1001.04 998.95 997.94 996.96 995.09 993.03 991.44 991.04 990.58 991.18 992.09 992.49 992.39 992.75 993.16 994.26 996.06 998.63 1000.39 1001.50 1002.65 1003.30 1004.20 1004.41 1005.21 1006.24 1007.05 1007.71 1008.01 1008.45 1008.67 1010.22 1011.86 1012.86
1004.04 1002.32 1001.69 1001.75 1001.95 1001.70 1001.68 1001.37 1001.28 999.86 999.15 998.54 997.06 995.44 994.26 992.46 990.95 989.96 989.90 990.08 990.68 991.16 991.41 991.98 992.76 993.75 995.79 998.02 1000.04 1000.90 1002.07 1002.94 1003.86 1004.56 1005.58 1006.73 1007.25 1007.35 1007.67 1007.94 1009.44 1010.82 1012.24 1013.14
1005.67 1004.16 1002.92 1002.27 1001.79 1001.77 1001.35 1001.30 1000.90 1000.59 999.70 998.33 996.08 994.78 993.59 991.64 990.86 989.92 989.55 988.98 989.39 990.03 990.55 991.51 992.46 993.31 995.11 998.01 999.68 1000.82 1001.68 1002.73 1003.92 1004.74 1005.74 1006.54 1006.55 1006.77 1008.07 1009.85 1010.73 1011.69 1012.77 1013.72
1008.17 1006.40 1003.81 1003.13 1002.42 1001.25 1001.04 1001.30 1001.61 1000.67 999.42 997.37 995.29 993.96 992.31 991.57 990.67 989.85 989.34 989.60 989.09 989.43 989.98 991.24 992.16 993.44 994.94 998.14 999.49 1000.84 1002.00 1002.58 1003.73 1004.89 1005.51 1005.99 1006.60 1007.80 1009.63 1010.58 1011.33 1012.40 1013.34 1014.10
1008.72 1008.00 1004.81 1004.19 1002.51 1001.21 1001.61 1001.68 1001.55 1000.70 999.56 997.65 996.36 995.41 993.78 992.02 990.61 990.60 990.11 990.37 989.71 989.21 989.71 990.97 992.08 993.52 994.05 997.30 999.89 1001.14 1001.90 1002.68 1003.74 1004.61 1005.46 1006.45 1007.69 1009.10 1010.12 1011.34 1012.37 1013.07 1013.93 1014.56
1008.82 1008.23 1005.55 1003.10 1001.15 1000.77 1000.62 1000.53 1000.56 1000.47 998.86 997.56 996.71 996.46 995.30 993.38 990.93 990.51 990.20 990.19 990.05 989.46 989.80 990.81 992.44 994.23 991.34 997.30 1000.37 1001.42 1002.18 1002.97 1003.85 1005.26 1006.41 1007.46 1008.46 1009.80 1011.04 1012.00 1012.96 1013.84 1014.39 1015.03
1009.89 1008.59 1005.96 1002.15 1000.12 1000.16 1000.21 1000.11 1000.13 1000.04 999.51 998.61 998.41 997.34 996.10 993.68 991.21 990.80 990.36 989.88 989.58 989.70 989.93 991.17 993.87 996.60 998.83 1000.02 1001.32 1001.99 1002.81 1003.69 1005.27 1006.22 1007.28 1008.33 1009.50 1010.50 1011.62 1012.64 1013.56 1014.39 1014.89 1015.28
1009.65 1008.47 1006.85 1004.29 1001.91 1002.50 1001.41 1000.48 1000.21 1000.04 999.49 997.69 997.35 998.88 996.92 994.82 994.28 992.46 990.69 990.26 989.85 990.00 990.54 992.18 995.60 998.43 1000.11 1001.33 1001.96 1002.66 1003.74 1004.70 1005.79 1007.10 1008.41 1009.44 1010.67 1011.50 1012.41 1013.31 1014.09 1014.67 1015.28 1015.77
1009.43 1007.92 1006.22 1004.33 1002.81 1001.93 1001.16 1000.54 1000.14 999.44 998.80 998.42 997.60 998.96 998.21 996.31 995.99 995.03 993.55 991.53 990.82 990.68 991.52 994.83 997.60 1000.03 1001.31 1002.25 1002.89 1003.90 1004.78 1005.42 1006.63 1008.01 1009.29 1010.52 1011.47 1012.35 1013.18 1013.95 1014.61 1015.24 1015.82 1016.46
1009.09 1007.75 1005.53 1002.90 1000.98 1000.45 1000.04 999.53 999.13 998.67 998.55 998.26 998.10 998.69 999.60 997.51 997.35 996.08 994.52 993.19 992.39 993.97 995.88 997.39 999.52 1001.32 1002.38 1003.01 1003.87 1004.83 1005.65 1006.53 1007.56 1008.68 1009.88 1011.08 1012.05 1013.13 1013.97 1014.68 1015.33 1016.08 1016.64 1017.08
1008.89 1007.65 1005.75 1002.11 1000.17 1000.16 999.82 998.55 998.11 997.96 997.70 997.66 998.08 999.08 999.35 997.84 997.51 997.16 995.64 994.01 994.60 997.09 998.28 999.39 1001.15 1002.69 1003.29 1003.85 1004.63 1005.47 1006.46 1007.26 1008.08 1009.15 1010.64 1011.77 1012.76 1013.73 1014.51 1015.32 1016.06 1016.71 1017.22 1017.59
1008.13 1007.55 1006.13 1003.03 1000.89 999.95 999.29 998.35 997.24 997.21 997.18 997.18 998.91 999.92 999.62 999.39 999.38 998.55 995.57 994.82 997.19 998.47 999.82 1001.50 1002.89 1003.88 1004.42 1005.03 1005.72 1006.33 1006.97 1007.47 1008.53 1009.97 1011.27 1012.32 1013.13 1014.12 1015.11 1015.94 1016.67 1017.33 1017.78 1018.15
1007.53 1007.21 1005.61 1003.35 1001.59 1001.24 1000.25 1000.49 1000.37 999.43 998.44 998.08 998.84 999.41 1000.46 1000.58 1000.62 999.45 996.50 997.25 999.05 1000.40 1001.79 1003.09 1004.29 1004.93 1005.40 1005.88 1006.11 1006.24 1007.09 1008.11 1009.20 1010.54 1011.72 1012.76 1013.81 1014.81 1015.67 1016.39 1017.03 1017.73 1018.34 1018.73
1005.79 1005.87 1005.93 1003.79 1001.96 1002.21 1003.41 1002.04 1000.81 999.57 999.06 999.57 999.57 1000.19 1001.00 1001.59 1001.49 1000.75 999.79 1000.24 1001.41 1002.39 1003.55 1004.61 1005.53 1006.06 1006.32 1006.43 1006.41 1006.84 1007.65 1008.82 1010.10 1011.42 1012.48 1013.59 1014.66 1015.54 1016.31 1017.09 1017.70 1018.30 1018.81 1019.27
1006.20 1005.75 1005.22 1004.19 1003.48 1003.85 1004.80 1003.27 1000.73 1000.19 1002.09 1000.21 1000.24 1000.65 1001.65 1002.19 1002.67 1002.86 1002.58 1002.66 1003.43 1004.19 1004.99 1005.83 1006.41 1006.79 1007.20 1007.39 1007.50 1007.92 1008.88 1010.13 1011.47 1012.56 1013.71 1014.88 1015.83 1016.62 1017.40 1017.99 1018.51 1018.92 1019.49 1020.03
1008.50 1008.03 1006.81 1005.87 1005.35 1005.38 1005.87 1004.42 1004.24 1004.14 1001.90 1001.26 1001.75 1002.60 1002.93 1003.44 1004.04 1004.23 1004.25 1004.25 1004.76 1005.45 1006.29 1006.88 1007.21 1007.86 1008.05 1008.26 1008.49 1009.20 1010.43 1011.86 1012.88 1013.99 1015.08 1016.18 1016.84 1017.41 1018.18 1018.69 1019.20 1019.60 1019.98 1020.24
1009.78 1010.57 1010.13 1009.20 1008.38 1008.18 1008.07 1007.48 1006.02 1004.37 1002.97 1002.59 1003.02 1003.89 1004.14 1004.74 1005.42 1005.81 1005.99 1006.11 1006.39 1006.67 1007.17 1007.78 1008.11 1008.56 1009.18 1009.78 1010.48 1010.75 1012.28 1013.12 1014.24 1015.28 1016.25 1016.88 1017.60 1018.29 1018.94 1019.35 1019.58 1019.91 1020.19 1020.35
1010.89 1011.22 1010.63 1010.03 1009.30 1009.04 1008.63 1007.72 1006.30 1004.75 1004.19 1004.26 1004.65 1005.16 1005.59 1006.02 1006.72 1007.11 1007.45 1007.63 1007.79 1008.01 1008.29 1008.78 1008.98 1009.29 1010.14 1011.13 1011.96 1012.57 1013.52 1014.47 1015.29 1016.17 1017.02 1017.86 1018.38 1019.02 1019.45 1019.80 1020.49 1021.43 1021.62 1021.39
1012.14 1012.00 1011.39 1010.51 1010.16 1009.77 1009.22 1008.65 1007.66 1006.54 1006.14 1005.99 1006.25 1006.49 1006.87 1007.24 1007.99 1008.21 1008.57 1008.74 1008.76 1008.91 1009.34 1009.59 1009.95 1010.69 1011.55 1012.47 1013.31 1014.16 1015.01 1015.68 1016.32 1017.21 1018.08 1018.94 1020.15 1021.23 1022.11 1023.09 1023.56 1024.38 1025.06 1024.27
1012.59 1012.49 1012.26 1011.50 1011.58 1011.17 1010.43 1009.65 1008.82 1007.87 1007.70 1007.58 1007.28 1007.73 1008.21 1008.44 1009.00 1009.39 1009.73 1009.89 1009.77 1009.88 1010.26 1010.68 1011.55 1012.03 1012.92 1013.74 1014.58 1015.46 1016.35 1016.88 1017.30 1017.75 1018.63 1019.70 1020.61 1021.62 1022.58 1023.73 1025.38 1026.60 1026.37 1026.43
Wind_Speed
16 13 16 19 16 19 21 24 25 25 19 17 26 23 24 24 28 22 29 19 24 26 24 19 20 20 12 13 16 21 18 15 13 11 13 11 11 8 8 7 10 9 8 8
14 17 20 21 17 24 23 24 25 23 22 21 21 26 29 23 27 28 22 23 22 24 26 25 23 20 20 14 17 21 18 16 12 12 10 10 10 10 9 9 8 8 8 8
18 19 19 12 17 24 19 21 23 24 26 22 20 25 25 28 25 26 24 17 20 20 22 23 23 21 20 20 20 17 18 18 14 13 8 8 10 8 8 10 8 8 9 8
16 21 20 20 22 18 22 22 22 24 22 17 21 19 25 26 25 25 24 22 22 22 20 20 23 18 20 18 19 20 19 20 15 15 13 14 10 11 9 8 7 7 8 9
20 22 12 16 14 13 20 20 21 17 23 20 25 16 19 26 29 26 25 25 25 24 22 22 22 23 21 19 17 18 19 21 18 16 15 13 12 11 10 9 11 8 7 9
24 23 19 20 19 12 15 16 20 20 15 18 24 22 19 23 31 31 29 31 29 28 24 23 22 22 21 21 17 18 20 19 17 15 15 12 16 14 11 10 10 9 8 6
13 18 21 21 15 15 17 14 7 8 11 17 19 23 21 25 28 30 29 30 29 29 24 23 22 23 21 23 19 19 20 19 18 19 17 17 15 16 14 12 9 13 9 6
10 6 4 2 13 10 16 16 10 11 10 11 17 20 21 28 27 19 17 23 27 28 23 23 23 23 21 25 23 22 24 24 20 19 19 17 17 11 11 9 10 12 9 9
8 7 6 12 12 12 11 19 18 22 22 17 15 13 26 21 29 23 21 16 26 25 25 24 24 23 27 25 25 21 21 20 19 19 18 16 13 13 16 16 14 11 12 10
2 10 10 10 18 18 18 4 7 11 10 17 15 15 13 19 27 14 17 11 13 26 25 23 23 21 27 24 23 18 21 23 22 22 19 14 15 17 16 14 14 14 13 13
2 6 6 7 9 18 8 8 10 12 15 13 7 9 15 12 26 23 16 16 15 23 23 24 22 23 27 27 20 16 20 23 21 21 16 16 18 17 16 15 14 14 13 12
5 6 13 23 23 21 20 17 16 10 12 12 15 5 17 22 19 22 20 20 20 19 25 24 22 19 13 23 23 18 19 19 18 17 18 18 17 18 16 16 16 14 13 12
1 5 8 10 9 15 12 13 14 19 18 18 8 6 9 20 9 23 22 20 20 24 25 23 25 20 16 16 18 16 16 19 18 18 18 17 16 17 17 16 15 14 13 12
9 6 14 14 20 2 5 11 9 15 11 18 17 5 18 16 16 16 19 20 16 22 21 25 26 18 16 14 17 18 18 18 19 19 18 18 18 18 17 16 15 13 12 11
3 6 14 20 24 23 21 19 19 17 20 21 15 5 9 16 13 19 18 15 18 19 25 27 23 16 15 16 18 17 16 18 19 20 20 19 18 18 17 16 14 13 12 11
2 6 15 21 21 20 20 20 19 18 16 16 21 13 10 15 15 19 17 18 23 26 23 23 22 18 16 17 19 18 18 18 21 20 21 19 19 17 15 14 14 13 13 12
3 4 7 11 7 0 7 16 18 18 18 14 16 2 5 15 15 18 20 20 25 21 21 21 20 16 15 18 19 20 19 19 20 22 21 20 18 17 16 15 14 14 13 12
3 2 4 8 11 5 9 18 4 9 9 3 11 8 4 10 12 19 25 28 22 21 21 19 16 16 17 18 20 21 19 22 23 22 20 18 18 17 16 15 15 13 12 12
10 3 5 5 5 2 14 17 11 10 7 14 9 2 3 5 2 7 16 22 22 21 19 17 16 18 19 19 19 21 24 23 22 21 20 18 17 17 16 15 14 12 12 11
13 10 3 5 4 7 8 20 18 12 5 8 4 4 7 10 2 5 11 22 22 22 20 19 18 18 17 16 20 21 23 23 22 20 19 18 17 16 16 14 13 12 11 11
8 6 6 9 3 6 16 25 14 4 7 18 7 8 6 5 6 7 13 21 21 20 21 20 19 18 17 17 20 22 22 22 21 20 20 18 17 16 15 14 12 11 11 11
5 8 6 7 6 3 25 14 8 11 18 4 14 13 15 15 14 13 15 20 23 22 21 20 18 16 15 19 19 23 22 21 21 20 19 18 16 13 12 13 12 11 10 9
2 4 5 5 4 9 12 14 13 18 1 13 15 14 16 16 14 13 15 18 19 20 19 17 18 20 18 19 19 23 21 21 21 20 19 17 16 14 13 12 11 9 6 6
5 3 4 6 2 11 13 15 16 11 12 13 15 15 15 16 15 16 14 15 17 17 19 17 19 23 22 21 21 21 21 20 20 20 19 16 15 14 12 10 11 12 10 7
2 6 6 4 4 11 8 13 14 10 12 16 15 16 17 17 16 15 14 15 16 17 17 17 20 22 23 22 21 20 19 19 19 19 17 16 14 15 15 15 11 11 13 14
2 3 3 3 8 6 7 12 12 10 12 12 17 17 16 17 16 15 13 12 15 17 18 20 22 22 22 22 21 20 19 19 17 16 14 13 13 13 13 13 14 19 18 20
Wind_Direction
253 240 244 256 264 269 276 280 284 288 287 275 282 265 241 246 246 244 226 230 225 223 237 221 209 192 214 214 183 155 160 168 176 160 180 170 159 165 159 151 126 162 157 160
250 256 247 268 302 293 275 269 267 274 277 265 261 269 262 243 229 238 235 223 229 219 223 223 217 207 187 180 165 162 160 161 171 178 179 169 160 162 155 126 152 151 159 166
276 273 289 257 258 272 266 277 281 280 278 272 266 260 266 249 242 225 235 233 237 233 212 216 211 202 199 172 153 160 156 157 167 173 167 158 136 137 144 130 150 162 171 172
277 271 262 256 266 266 264 269 267 262 272 260 248 256 233 243 232 233 229 226 232 238 225 210 204 188 188 166 160 157 160 154 175 168 168 154 149 166 153 133 108 125 145 144
263 279 267 275 263 276 273 282 268 255 256 266 251 255 263 226 230 224 218 228 229 232 224 220 190 200 163 158 164 167 153 157 175 176 169 171 144 124 125 133 143 138 122 89
266 268 261 259 260 252 264 266 257 249 261 257 249 251 240 248 223 217 219 217 219 227 216 215 189 190 160 173 169 164 152 168 162 166 162 137 145 140 145 144 148 131 106 102
273 251 237 246 260 256 240 245 244 236 229 251 242 239 250 252 219 216 220 205 206 218 207 206 190 168 175 173 161 154 159 156 165 152 144 147 142 154 149 149 128 121 108 102
288 296 248 194 240 250 238 238 235 267 252 270 252 226 237 245 252 215 227 205 199 208 195 191 187 175 163 164 157 158 159 155 151 146 146 149 153 149 131 118 120 99 112 98
318 248 305 274 262 251 244 243 258 271 289 274 251 209 254 234 241 221 210 205 193 193 190 184 176 186 156 146 155 156 152 149 140 145 149 153 142 130 91 98 107 109 114 117
327 287 276 271 288 247 246 249 258 244 267 267 265 236 233 224 223 221 174 197 215 183 182 184 170 164 136 153 145 161 150 148 146 150 144 137 123 100 108 118 116 108 107 105
204 253 283 286 239 248 218 244 231 270 259 272 269 291 345 264 210 198 196 204 222 188 178 180 164 165 149 142 141 153 149 143 143 139 131 125 110 117 113 111 114 109 109 106
263 276 272 270 263 243 259 245 251 228 240 265 299 268 276 292 218 200 204 190 205 214 183 164 161 126 121 123 142 147 141 133 127 131 108 112 113 116 114 112 112 113 107 105
188 244 289 289 227 229 234 251 256 241 268 252 263 312 312 308 269 199 204 190 187 204 177 154 120 120 125 133 137 134 122 117 117 111 112 112 115 115 113 110 110 110 108 103
220 221 243 267 286 264 275 278 235 247 258 259 255 122 280 302 348 329 210 181 194 198 154 137 117 122 121 127 124 119 111 118 114 110 111 113 117 113 111 112 110 106 102 101
258 263 251 262 259 268 268 258 250 243 253 254 264 105 285 294 320 308 311 247 175 194 139 111 111 122 121 124 112 111 115 117 117 114 113 113 111 112 110 106 105 98 100 102
228 272 284 281 263 240 249 249 252 247 251 252 262 237 275 295 294 295 295 275 174 102 102 114 114 116 120 120 118 116 116 119 118 113 112 112 109 103 106 110 106 106 105 102
246 275 301 277 356 198 236 249 236 243 241 253 237 314 258 296 299 296 281 260 114 121 118 109 116 120 121 119 122 120 121 120 114 114 116 117 118 117 118 113 110 106 103 99
251 247 261 279 296 224 20 24 240 214 240 205 124 186 316 289 293 295 245 117 118 118 113 112 116 118 118 119 121 122 122 117 116 116 116 118 117 112 110 108 105 107 103 97
214 242 275 273 304 284 22 2 346 332 24 82 121 60 217 253 238 6 67 94 108 108 107 109 113 118 120 126 133 123 119 119 116 115 115 114 113 113 112 108 107 107 107 99
312 191 229 294 322 31 1 336 310 282 156 104 51 205 195 213 191 358 61 95 95 100 105 111 114 117 116 121 118 118 115 113 113 114 112 111 110 109 108 107 105 107 107 100
333 352 310 327 350 96 355 330 311 337 2 317 48 112 100 80 87 99 103 96 98 102 107 110 108 109 114 120 117 112 111 109 109 108 106 105 104 104 105 107 106 101 96 100
333 318 343 325 352 0 4 343 9 315 308 49 82 102 105 100 100 100 101 105 108 107 108 107 110 117 121 112 110 106 104 108 107 106 106 109 110 108 105 105 104 103 105 101
338 358 305 332 331 333 324 321 311 293 18 72 91 100 102 100 96 98 102 103 105 106 108 111 113 111 104 107 105 107 109 111 110 109 110 108 106 105 104 104 105 101 94 91
346 31 257 312 124 333 329 337 336 22 76 90 102 102 99 99 96 97 99 103 105 105 108 112 112 106 105 105 106 105 112 115 114 110 107 106 103 98 83 71 55 42 24 73
331 308 318 270 7 320 349 358 346 47 77 87 94 103 101 101 93 96 98 104 109 110 113 114 108 108 108 109 109 110 115 115 110 105 105 97 83 81 73 54 55 73 48 40
316 319 329 325 333 287 335 5 3 59 77 87 95 96 97 100 102 99 94 102 106 109 109 108 110 111 111 111 111 112 116 119 117 116 109 110 110 105 101 96 86 62 71 66